Date,TemperatureHighF,TemperatureAvgF,TemperatureLowF,DewpointHighF,DewpointAvgF,DewpointLowF,HumidityHigh,HumidityAvg,HumidityLow,PressureMaxIn,PressureMinIn,WindSpeedMaxMPH,WindSpeedAvgMPH,GustSpeedMaxMPH,PrecipitationSumIn
2012-1-9,70.0,69.4,68.0,64.0,63.8,63.0,85,82,81,30.11,30.10,4,3,7,0.00
2012-1-10,75.0,72.3,71.0,68.0,66.6,66.0,85,82,77,30.01,29.96,10,5,13,0.00
2012-1-11,72.0,71.5,71.0,68.0,66.1,65.0,88,83,80,30.00,29.91,11,7,17,0.00
2012-1-12,71.0,70.7,69.0,69.0,68.7,67.0,94,94,93,29.97,29.96,0,0,2,0.02
2012-1-13,68.0,67.6,67.0,65.0,64.7,64.0,92,90,89,30.16,30.15,7,5,13,0.00
2012-1-14,68.0,63.8,60.0,65.0,51.0,43.0,89,64,46,30.32,30.15,14,10,21,0.00
2012-1-15,63.0,60.2,58.0,55.0,43.3,36.0,81,55,37,30.42,30.29,16,12,25,0.00
2012-2-8,72.0,71.3,71.0,69.0,68.3,68.0,91,90,89,30.04,30.01,7,5,12,0.01
2012-2-9,73.0,72.3,72.0,71.0,70.0,69.0,93,92,89,30.06,30.01,9,6,16,0.01
2012-2-10,76.0,72.3,70.0,74.0,70.6,69.0,97,95,91,30.06,29.94,7,2,9,0.00
2012-2-11,76.0,70.4,65.0,71.0,65.0,56.0,97,84,72,30.08,29.91,15,9,31,0.01
2012-2-12,65.0,57.3,54.0,56.0,43.4,36.0,78,60,45,30.24,30.08,20,14,32,0.01
2012-2-13,69.0,60.9,53.0,58.0,52.4,45.0,88,74,57,30.21,30.10,16,10,23,0.00
2012-2-17,79.0,77.4,73.0,69.0,68.3,68.0,83,74,70,30.10,30.06,6,4,9,0.00
2012-2-20,73.0,70.9,70.0,62.0,61.4,60.0,76,72,68,30.14,30.05,8,4,14,0.00
2012-2-21,74.0,70.8,68.0,65.0,63.6,61.0,90,78,71,30.17,30.10,11,7,17,0.00
2012-2-22,71.0,71.0,71.0,63.0,62.9,62.0,77,76,74,30.14,30.07,7,6,13,0.00
2012-3-2,82.0,79.3,76.0,74.0,72.0,71.0,85,79,73,30.06,29.99,13,9,18,0.00
2012-3-3,82.0,78.4,76.0,74.0,72.0,70.0,86,81,75,30.01,29.90,14,11,23,0.00
2012-3-4,69.0,68.3,67.0,57.0,52.8,49.0,67,58,49,30.15,30.04,18,13,27,0.00
2012-3-5,74.0,68.8,61.0,59.0,54.6,46.0,70,61,54,30.30,30.23,19,11,29,0.00
2012-3-6,73.0,68.0,65.0,62.0,58.9,55.0,81,73,56,30.31,30.23,15,10,27,0.00
2012-3-8,79.0,76.8,75.0,71.0,69.7,68.0,84,79,74,30.22,30.12,12,9,22,0.00
2012-3-9,75.0,75.0,75.0,69.0,69.0,69.0,83,83,82,30.15,30.11,12,10,18,0.00
2012-3-11,79.0,75.4,72.0,70.0,69.0,68.0,92,81,73,30.21,30.16,13,10,23,0.00
2012-3-12,75.0,73.5,72.0,70.0,67.6,65.0,91,82,73,30.21,30.14,15,11,25,0.00
2012-3-13,73.0,73.0,73.0,65.0,65.0,65.0,77,77,77,30.20,30.19,7,6,16,0.00
2012-3-24,81.0,77.6,75.0,69.0,67.6,66.0,79,71,66,30.05,29.96,8,5,12,0.00
2012-3-25,85.0,78.9,75.0,74.0,70.8,68.0,84,77,65,30.00,29.88,10,8,19,0.00
2012-3-26,80.0,74.8,71.0,71.0,63.3,60.0,84,68,50,30.01,29.91,11,7,19,0.00
2012-3-27,78.0,74.8,70.0,69.0,65.8,63.0,81,74,68,30.10,29.98,11,6,18,0.00
2012-3-28,78.0,76.4,75.0,67.0,64.8,62.0,75,67,63,30.14,30.05,16,12,24,0.00
2012-3-29,78.0,75.5,73.0,67.0,65.1,63.0,74,70,68,30.07,29.98,10,7,15,0.00
2012-3-30,79.0,74.8,73.0,68.0,65.9,64.0,79,74,67,30.07,29.97,11,7,16,0.00
2012-3-31,82.0,77.3,75.0,74.0,70.1,68.0,82,79,74,30.03,29.97,12,9,19,0.00
2012-4-3,82.0,79.2,73.0,74.0,71.9,71.0,93,78,73,30.00,29.93,10,6,15,0.00
2012-4-4,79.0,77.5,77.0,71.0,69.5,68.0,79,77,74,29.98,29.85,10,8,16,0.00
2012-4-5,86.0,79.8,69.0,75.0,72.6,67.0,93,79,68,29.90,29.80,13,8,21,0.04
2012-4-6,87.0,82.2,77.0,78.0,75.2,73.0,88,80,71,29.90,29.86,13,8,24,0.02
2012-4-9,78.0,78.0,78.0,62.0,61.6,61.0,58,57,56,30.09,30.08,9,8,15,0.00
2012-4-12,76.0,75.3,75.0,62.0,62.0,62.0,65,64,63,30.01,30.01,3,3,7,0.01
2012-4-13,83.0,79.4,74.0,69.0,67.4,66.0,79,67,59,30.10,30.02,7,4,10,0.01
2012-4-14,77.0,75.7,74.0,69.0,67.5,66.0,79,76,72,30.09,30.06,2,1,6,0.00
2012-4-16,81.0,78.1,76.0,68.0,65.3,61.0,76,65,55,30.16,30.10,18,12,27,0.00
2012-4-17,80.0,76.8,75.0,67.0,66.2,65.0,76,70,61,30.14,30.05,17,11,28,0.00
2012-4-18,82.0,77.5,75.0,71.0,68.4,67.0,78,74,66,30.09,29.97,14,9,21,0.00
2012-4-19,83.0,78.5,75.0,73.0,70.0,68.0,80,75,69,30.01,29.91,10,6,15,0.00
2012-4-20,85.0,79.8,76.0,74.0,71.6,69.0,83,76,67,29.96,29.84,12,7,18,0.00
2012-4-21,78.0,72.2,68.0,73.0,69.7,66.0,95,92,82,29.90,29.67,18,10,29,0.00
2012-4-22,83.0,77.1,73.0,73.0,67.4,-99.9,91,76,57,29.80,29.63,19,12,34,0.01
2012-4-23,80.0,74.2,71.0,66.0,58.9,54.0,77,60,45,29.91,29.79,15,10,24,0.01
2012-4-24,76.0,70.9,67.0,55.0,53.4,52.0,64,55,46,30.04,29.99,11,7,18,0.00
2012-4-25,77.0,73.9,71.0,62.0,59.6,57.0,70,61,53,30.13,30.07,10,7,16,0.00
2012-4-26,79.0,75.0,72.0,67.0,62.8,60.0,75,66,58,30.14,30.06,10,7,16,0.00
2012-4-27,81.0,76.4,73.0,73.0,70.3,67.0,90,81,73,30.10,30.01,11,7,19,0.01
2012-4-28,79.0,75.3,71.0,74.0,71.2,68.0,92,87,77,30.07,29.98,14,8,22,0.01
2012-4-29,78.0,72.9,71.0,74.0,69.7,-99.9,96,91,83,30.04,29.94,14,6,24,0.02
2012-4-30,77.0,74.5,71.0,74.0,71.9,69.0,96,92,86,29.98,29.90,21,12,28,0.05
2012-5-1,80.0,76.8,73.0,75.0,72.9,71.0,94,88,83,30.03,29.94,17,12,27,0.67
2012-5-2,81.0,78.6,76.0,75.0,73.0,72.0,88,83,80,30.06,29.97,15,11,25,0.01
2012-5-3,82.0,78.9,77.0,75.0,72.8,71.0,86,82,77,30.08,30.00,15,10,23,0.00
2012-5-4,82.0,78.4,76.0,73.0,70.7,67.0,88,78,71,30.08,30.00,14,9,19,0.01
2012-5-5,82.0,78.6,76.0,71.0,69.3,68.0,81,74,66,30.03,29.96,12,7,18,0.00
2012-5-6,84.0,79.2,77.0,73.0,69.8,-99.9,82,75,66,30.01,29.92,11,6,16,0.00
2012-5-7,84.0,79.8,77.0,73.0,71.7,70.0,83,76,69,29.95,29.87,10,6,13,0.01
2012-5-8,85.0,80.2,77.0,76.0,73.0,71.0,86,79,72,29.94,29.87,9,6,14,0.01
2012-5-9,86.0,72.3,77.0,77.0,55.7,-99.9,87,72,72,29.93,29.84,9,-102,14,0.00
2012-5-10,88.0,71.2,75.0,77.0,53.1,-99.9,89,70,65,29.92,29.84,9,-113,16,0.10
2012-5-11,84.0,80.6,77.0,75.0,73.0,71.0,87,78,68,30.06,29.90,6,4,11,0.08
2012-5-12,85.0,81.6,78.0,77.0,74.7,72.0,87,79,73,30.12,30.04,13,8,24,0.00
2012-5-13,84.0,79.9,78.0,74.0,72.0,-99.9,85,79,71,30.10,29.98,12,9,21,0.00
2012-5-14,84.0,81.0,78.0,75.0,73.9,72.0,86,80,73,30.05,29.93,9,5,15,0.00
2012-5-15,85.0,81.2,78.0,78.0,75.0,69.0,87,82,66,30.02,29.95,12,5,20,0.00
2012-5-16,82.0,79.9,77.0,77.0,73.8,69.0,87,82,70,30.03,29.92,9,4,14,0.00
2012-5-17,80.0,76.2,72.0,76.0,73.1,69.0,94,90,84,29.98,29.89,12,3,24,1.44
2012-5-18,84.0,78.4,72.0,76.0,72.8,70.0,94,84,67,29.96,29.89,6,2,10,0.02
2012-5-19,82.0,78.8,75.0,75.0,73.2,72.0,91,83,77,29.97,29.88,11,4,17,0.20
2012-5-20,82.0,77.1,72.0,75.0,70.6,-99.9,92,82,73,29.98,29.88,15,5,22,0.16
2012-5-21,84.0,79.6,73.0,76.0,73.2,70.0,91,81,73,29.99,29.93,12,4,17,0.04
2012-5-22,85.0,80.9,78.0,77.0,73.5,72.0,87,79,68,29.98,29.91,15,7,23,0.00
2012-5-23,83.0,78.8,76.0,76.0,73.5,72.0,90,84,75,29.94,29.83,14,8,22,0.00
2012-5-24,85.0,80.2,77.0,80.0,74.9,73.0,95,84,72,29.91,29.78,13,5,22,1.40
2012-5-25,86.0,82.2,77.0,79.0,76.6,74.0,90,83,75,30.01,29.90,11,5,16,0.46
2012-5-26,87.0,82.5,74.0,78.0,75.9,68.0,88,81,67,30.02,29.96,18,5,27,0.24
2012-5-27,86.0,79.8,71.0,78.0,73.7,68.0,94,82,73,30.02,29.90,8,3,26,0.46
2012-5-28,88.0,75.3,79.0,78.0,59.4,-99.9,84,71,70,29.99,29.90,9,-86,15,0.00
2012-5-29,88.0,65.6,78.0,78.0,39.3,-99.9,89,63,70,29.99,29.91,11,-202,16,0.00
2012-5-30,90.0,64.5,77.0,78.0,35.7,-99.9,90,60,62,29.97,29.88,7,-220,11,0.00
2012-5-31,84.0,81.2,75.0,76.0,75.1,73.0,92,82,76,29.96,29.89,15,6,23,0.28
2012-6-1,84.0,79.2,73.0,78.0,74.9,70.0,93,87,75,29.99,29.90,16,7,35,1.14
2012-6-2,89.0,81.8,77.0,79.0,75.7,73.0,91,82,72,30.01,29.90,14,7,23,0.05
2012-6-3,88.0,76.0,76.0,79.0,63.8,-99.9,93,78,73,30.06,29.98,5,-61,9,0.01
2012-6-4,90.0,78.9,74.0,81.0,68.7,-99.9,94,78,72,30.03,29.92,8,-39,13,0.00
2012-6-5,89.0,81.0,80.0,80.0,72.1,-99.9,87,80,73,29.93,29.86,9,-23,15,0.00
2012-6-6,87.0,83.6,81.0,79.0,77.6,76.0,89,82,74,29.97,29.89,11,7,17,0.00
2012-6-7,89.0,80.9,81.0,80.0,71.6,-99.9,92,80,73,30.00,29.93,9,-30,15,0.00
2012-6-8,90.0,70.0,78.0,81.0,48.5,-99.9,92,69,71,30.00,29.91,8,-164,15,0.14
2012-6-9,88.0,83.0,75.0,79.0,76.4,70.0,90,81,72,30.03,29.94,22,7,33,0.33
2012-6-10,88.0,84.6,82.0,80.0,77.0,-99.9,88,82,75,30.09,29.98,11,8,18,0.00
2012-6-11,87.0,83.2,80.0,78.0,74.5,70.0,85,75,65,30.09,30.03,12,8,21,0.00
2012-6-12,87.0,82.2,79.0,73.0,70.4,69.0,77,68,58,30.08,29.96,9,6,17,0.00
2012-6-13,88.0,70.8,74.0,75.0,50.5,-99.9,91,66,62,30.01,29.93,7,-128,13,0.00
2012-6-14,90.0,57.6,78.0,78.0,23.0,-99.9,91,57,63,30.01,29.92,7,-296,11,0.00
2012-6-15,89.0,60.5,76.0,77.0,28.4,-99.9,89,57,64,30.00,29.93,8,-261,13,0.00
2012-6-16,88.0,82.3,78.0,76.0,74.2,72.0,86,77,65,30.01,29.93,13,6,23,0.06
2012-6-17,86.0,81.2,78.0,74.0,69.1,-99.9,87,69,56,30.02,29.91,12,8,21,0.10
2012-6-18,86.0,81.8,77.0,74.0,70.7,65.0,81,69,61,29.99,29.90,13,9,22,0.10
2012-6-19,82.0,79.9,75.0,76.0,74.3,71.0,91,84,75,30.00,29.91,16,11,28,0.24
2012-6-20,84.0,80.0,76.0,77.0,74.7,73.0,93,84,74,29.98,29.89,17,12,26,0.09
2012-6-21,84.0,79.2,75.0,77.0,75.0,73.0,94,87,80,29.97,29.87,17,9,28,0.66
2012-6-22,85.0,79.2,75.0,77.0,75.1,73.0,93,87,75,29.95,29.83,11,6,18,0.56
2012-6-23,85.0,79.7,74.0,80.0,76.4,71.0,95,90,81,29.96,29.87,20,11,33,1.24
2012-6-24,85.0,82.8,81.0,80.0,78.1,74.0,90,86,78,29.97,29.87,20,13,29,0.08
2012-6-25,88.0,83.5,81.0,80.0,77.9,76.0,87,84,76,29.88,29.80,20,11,29,0.00
2012-6-26,89.0,85.4,82.0,80.0,78.6,76.0,89,81,74,29.84,29.78,14,10,24,0.00
2012-6-27,91.0,84.7,81.0,81.0,78.4,77.0,89,82,70,30.02,29.84,17,10,27,0.00
2012-6-28,91.0,67.9,78.0,81.0,44.4,-99.9,93,68,70,30.08,30.00,8,-186,12,0.05
2012-6-29,89.0,61.2,79.0,79.0,31.6,-99.9,92,63,70,30.07,29.98,6,-255,10,0.01
2012-6-30,87.0,83.3,78.0,79.0,77.1,74.0,94,82,75,30.04,29.96,9,3,12,1.80
2012-7-1,88.0,83.7,79.0,79.0,76.5,73.0,90,79,72,30.10,30.00,7,3,12,0.01
2012-7-2,89.0,84.6,81.0,79.0,76.2,74.0,82,76,67,30.12,30.01,11,5,17,0.00
2012-7-3,88.0,84.7,81.0,79.0,77.0,75.0,84,78,72,30.08,30.00,12,6,18,0.00
2012-7-4,89.0,83.7,79.0,80.0,76.5,73.0,86,79,72,30.08,30.00,15,7,21,0.27
2012-7-5,86.0,83.1,80.0,77.0,75.3,73.0,84,77,70,30.06,29.98,9,5,14,0.06
2012-7-6,88.0,84.4,82.0,78.0,76.1,73.0,81,76,70,30.04,29.99,11,6,16,0.06
2012-7-7,89.0,84.3,80.0,79.0,76.7,72.0,86,78,70,30.08,30.00,12,6,19,0.01
2012-7-8,88.0,84.8,82.0,79.0,77.4,75.0,84,79,73,30.09,30.03,9,5,18,0.01
2012-9-25,84.0,81.6,80.0,77.0,75.5,74.0,86,82,78,30.05,29.97,7,3,12,0.03
2012-9-26,87.0,83.0,80.0,79.0,77.2,74.0,89,83,77,30.07,29.99,10,4,21,0.21
2012-9-27,87.0,82.0,80.0,80.0,76.0,-99.9,90,84,72,30.06,29.96,7,-4,14,0.01
2012-9-28,87.0,82.4,75.0,80.0,76.4,71.0,91,82,70,30.02,29.90,10,5,18,0.37
2012-9-29,87.0,81.6,75.0,80.0,76.3,72.0,94,84,76,29.96,29.84,8,4,14,0.37
2012-9-30,86.0,81.4,77.0,78.0,75.6,72.0,93,83,74,29.90,29.78,14,6,23,0.10
2012-10-1,86.0,81.3,77.0,79.0,76.6,74.0,92,86,78,29.88,29.76,15,9,25,0.37
2012-10-2,87.0,81.4,76.0,79.0,76.4,73.0,93,85,77,30.06,29.86,15,8,25,0.21
2012-10-3,88.0,81.8,75.0,81.0,77.4,73.0,95,87,78,30.12,30.02,11,5,16,0.20
2012-10-4,88.0,84.1,81.0,80.0,78.0,75.0,89,82,74,30.12,30.02,11,6,18,0.06
2012-10-5,86.0,83.5,81.0,80.0,77.5,76.0,89,82,74,30.07,29.91,11,7,18,0.15
2012-10-6,87.0,83.6,81.0,79.0,76.6,75.0,86,80,71,29.96,29.84,8,5,14,0.05
2012-10-7,82.0,81.2,81.0,76.0,75.5,75.0,84,83,81,29.91,29.85,6,3,10,0.00
2012-10-10,87.0,83.8,81.0,79.0,77.0,74.0,84,80,74,30.03,29.96,10,5,20,0.01
2012-10-11,85.0,81.7,79.0,76.0,72.1,70.0,81,73,62,30.09,29.99,13,8,25,0.01
2012-10-12,85.0,79.8,77.0,73.0,70.2,67.0,81,73,62,30.08,30.00,16,9,23,0.00
2012-10-13,85.0,78.8,75.0,75.0,71.0,68.0,89,78,64,30.07,29.97,15,11,28,0.01
2012-10-14,85.0,80.2,77.0,78.0,75.4,72.0,92,86,77,30.01,29.87,11,8,23,0.24
2012-10-15,85.0,81.2,78.0,79.0,76.0,74.0,91,85,78,29.90,29.77,8,4,15,0.17
2012-10-16,78.0,78.0,78.0,75.0,75.0,75.0,90,90,90,29.82,29.82,1,1,5,0.00
2012-10-17,80.0,78.6,78.0,77.0,75.4,75.0,93,91,88,29.85,29.80,4,0,8,0.14
2012-10-18,86.0,81.0,75.0,79.0,76.1,73.0,95,85,77,29.88,29.78,10,4,17,1.40
2012-10-19,88.0,82.1,78.0,80.0,76.9,74.0,90,84,76,29.88,29.81,7,3,11,0.71
2012-10-20,86.0,78.7,76.0,78.0,74.9,73.0,94,89,73,29.92,29.83,4,1,7,0.00
2012-10-21,85.0,80.1,76.0,76.0,73.4,68.0,93,80,69,29.96,29.85,11,6,20,0.00
2012-10-22,84.0,79.7,77.0,75.0,70.6,67.0,85,74,62,29.96,29.90,12,9,24,0.00
2012-10-23,84.0,80.3,78.0,73.0,71.0,69.0,79,74,62,29.94,29.84,14,9,23,0.00
2012-10-24,85.0,79.9,74.0,77.0,73.7,71.0,90,82,72,29.90,29.76,19,10,31,0.04
2012-10-25,80.0,75.1,71.0,75.0,71.5,68.0,94,89,79,29.79,29.62,24,14,41,0.99
2012-10-26,80.0,75.8,73.0,73.0,70.5,68.0,91,84,77,29.64,29.55,18,12,31,0.44
2012-10-27,82.0,77.7,75.0,72.0,68.3,65.0,86,73,61,29.73,29.59,21,14,32,0.01
2012-10-28,82.0,76.6,73.0,72.0,68.2,62.0,84,75,66,29.80,29.71,16,11,28,0.00
2012-10-29,75.0,71.4,69.0,64.0,58.8,55.0,73,65,54,29.88,29.78,17,12,28,0.00
2012-10-30,72.0,69.5,67.0,61.0,57.5,55.0,75,66,59,30.02,29.85,14,8,26,0.00
2012-10-31,77.0,70.5,65.0,61.0,58.5,56.0,80,66,53,30.06,30.00,6,3,13,0.00
2012-11-1,77.0,70.9,62.0,65.0,62.5,59.0,92,76,61,30.08,30.00,5,2,9,0.00
2012-11-2,81.0,69.5,64.0,70.0,64.3,61.0,94,84,61,30.08,30.01,7,3,10,0.00
2012-11-3,78.0,72.8,69.0,66.0,63.0,58.0,85,72,51,30.13,30.03,9,5,15,0.00
2012-11-4,79.0,75.9,70.0,69.0,65.4,62.0,90,70,59,30.10,29.99,8,4,14,0.00
2012-11-5,78.0,73.6,70.0,68.0,66.0,63.0,84,77,68,30.01,29.93,8,3,11,0.00
2012-11-6,81.0,73.4,69.0,70.0,67.2,65.0,91,81,68,29.95,29.85,7,2,9,0.00
2012-11-7,75.0,71.2,67.0,70.0,64.0,57.0,93,78,64,29.98,29.84,12,7,19,0.00
2012-11-8,69.0,65.7,64.0,58.0,50.6,44.0,73,59,44,30.11,29.97,13,8,20,0.00
2012-11-9,75.0,68.1,63.0,62.0,56.8,49.0,80,68,55,30.16,30.09,13,10,22,0.00
2012-11-11,76.0,76.0,76.0,67.0,66.0,65.0,73,72,69,30.16,30.15,13,11,21,0.00
2012-11-12,79.0,76.0,73.0,71.0,68.9,65.0,90,79,68,30.15,30.07,13,8,21,0.00
2012-11-13,79.0,74.5,71.0,71.0,69.2,68.0,92,84,73,30.10,30.01,11,6,18,0.00
2012-11-14,78.0,72.5,70.0,71.0,67.6,-99.9,92,86,80,30.09,30.02,10,6,16,0.00
2012-11-15,78.0,73.8,71.0,71.0,68.6,66.0,94,84,67,30.08,30.01,9,5,14,0.10
2012-11-16,76.0,73.0,69.0,69.0,67.9,66.0,91,84,76,30.08,30.00,12,7,19,0.00
2012-11-17,78.0,72.4,69.0,69.0,68.4,67.0,93,88,75,30.07,29.99,11,9,20,0.00
2012-11-18,72.0,72.0,72.0,68.0,67.3,67.0,86,85,85,30.08,30.08,11,10,19,0.02
2012-11-19,76.0,70.6,65.0,67.0,63.2,60.0,91,78,57,30.11,30.01,14,9,22,0.01
2012-11-20,68.0,64.7,61.0,65.0,60.9,57.0,91,88,82,30.06,29.95,10,6,18,0.00
2012-11-21,72.0,68.3,63.0,65.0,61.2,54.0,90,78,64,30.04,29.93,16,9,25,0.00
2012-11-22,72.0,66.6,62.0,57.0,52.8,48.0,70,62,46,30.10,30.01,18,12,29,0.00
2012-11-23,68.0,66.4,66.0,62.0,60.1,56.0,84,80,69,30.10,30.06,10,6,16,0.00
2012-11-24,72.0,66.1,61.0,61.0,56.4,48.0,91,71,55,30.13,30.02,13,7,18,0.00
2012-11-25,63.0,61.7,60.0,61.0,57.3,53.0,94,86,72,30.12,30.06,10,5,17,0.00
2012-11-26,78.0,70.7,62.0,67.0,64.2,58.0,92,80,67,30.16,30.09,9,5,16,0.00
2012-11-27,78.0,74.7,71.0,70.0,68.4,66.0,89,81,76,30.16,30.08,11,5,16,0.00
2012-11-28,75.0,70.5,68.0,70.0,67.7,66.0,95,91,84,30.18,30.08,11,4,19,0.00
2012-11-29,77.0,71.2,67.0,69.0,67.0,64.0,93,87,76,30.18,30.10,13,9,21,0.03
2012-11-30,76.0,71.6,69.0,70.0,67.6,66.0,95,88,81,30.17,30.08,12,8,22,0.31
2012-12-1,78.0,72.5,70.0,70.0,67.2,65.0,92,84,70,30.15,30.07,11,7,19,0.07
2012-12-2,78.0,73.8,70.0,70.0,67.5,65.0,91,81,72,30.19,30.10,10,7,22,0.05
2012-12-3,77.0,73.9,70.0,68.0,64.5,58.0,78,72,61,30.20,30.12,14,7,23,0.01
2012-12-4,78.0,73.3,70.0,67.0,64.8,58.0,85,75,59,30.19,30.11,11,7,18,0.01
2012-12-5,77.0,73.2,70.0,68.0,66.0,64.0,89,79,68,30.12,30.00,9,5,15,0.01
2012-12-6,78.0,71.4,70.0,71.0,65.9,-99.9,93,86,74,30.00,29.90,7,3,12,0.00
2012-12-7,80.0,72.8,70.0,72.0,69.3,67.0,94,89,74,29.97,29.88,9,3,14,0.12
2012-12-8,79.0,75.8,73.0,74.0,72.2,69.0,93,88,83,30.02,29.92,11,5,23,0.40
2012-12-9,82.0,77.7,73.0,77.0,74.6,71.0,94,90,84,30.07,29.98,6,2,11,0.01
2012-12-10,83.0,79.0,77.0,78.0,75.5,74.0,93,90,84,30.02,29.91,11,7,18,0.01
2012-12-11,83.0,79.4,78.0,78.0,76.2,75.0,93,90,84,30.04,29.93,11,7,19,0.00
2012-12-12,81.0,78.5,75.0,76.0,74.0,72.0,91,86,81,30.09,30.00,12,7,20,0.00
2012-12-16,75.0,74.8,74.0,68.0,67.7,67.0,80,79,77,29.98,29.96,5,2,9,0.00
2012-12-17,82.0,76.6,72.0,74.0,70.4,68.0,91,82,74,29.98,29.91,9,4,14,0.00
2012-12-18,84.0,76.0,72.0,76.0,71.4,68.0,93,86,76,30.01,29.91,6,3,11,0.00
2012-12-19,80.0,75.8,71.0,72.0,70.2,67.0,91,83,71,30.08,30.00,7,4,13,0.00
2012-12-20,81.0,77.1,76.0,72.0,69.1,66.0,85,77,69,30.06,29.97,12,8,19,0.00
2012-12-21,76.0,69.6,60.0,72.0,60.3,44.0,94,73,46,30.18,29.99,15,9,28,0.00
2012-12-22,60.0,55.6,54.0,46.0,40.8,38.0,61,57,52,30.27,30.17,21,16,31,0.00
2012-12-23,71.0,67.6,63.0,59.0,57.1,54.0,84,70,62,30.19,30.11,9,5,15,0.00
2012-12-24,77.0,68.8,63.0,65.0,61.6,58.0,89,78,64,30.11,29.99,8,4,12,0.00
2012-12-25,71.0,68.5,65.0,63.0,62.1,61.0,90,81,73,29.99,29.97,5,2,9,0.00
2012-12-27,68.0,64.8,61.0,59.0,55.5,53.0,87,73,60,30.07,29.99,9,3,12,0.00
2012-12-28,78.0,73.2,65.0,73.0,68.6,60.0,91,86,79,30.04,29.95,10,6,17,0.00
2012-12-29,83.0,76.4,69.0,77.0,72.5,64.0,92,87,76,30.11,29.93,13,7,23,0.00
2012-12-30,68.0,64.2,58.0,64.0,55.8,48.0,87,74,66,30.26,30.11,18,12,29,0.00
2012-12-31,73.0,70.7,68.0,63.0,61.2,59.0,77,72,67,30.26,30.15,13,10,22,0.00
2013-1-1,78.0,73.9,72.0,70.0,66.2,62.0,87,77,69,30.16,30.03,12,7,19,0.00